Home   Weather   Inverness   Past weeks
Flag for United Kingdom

Past Weather in Inverness, Scotland, United Kingdom — Yesterday and Last 2 Weeks

Now
41 °F

Passing clouds.


Feels Like: 36 °F
Forecast: 54 / 38 °F
Wind: 7 mph from South

Location: Inverness / Dalcross

Current Time: Mar 19, 2019 at 6:37:18 am

Latest Report: Mar 19, 2019 at 5:50 am


Visibility: N/A

Pressure: 30.04 "Hg

Humidity: 100%

Dew Point: 41 °F

Location of InvernessLocation

Past Weather in Inverness — Graph

°F

Inverness Temperature Yesterday

Maximum temperature yesterday: 50 °F (at 1:50 pm)
Minimum temperature yesterday: 30 °F (at 1:50 am)
Average temperature yesterday: 40 °F

High & Low Weather Summary for the Past Weeks

 TemperatureHumidityPressure
High50 °F (Mar 18, 1:50 pm)100% (Mar 4, 5:50 am)30.09 "Hg (Mar 4, 5:50 am)
Low25 °F (Mar 5, 11:20 pm)53% (Mar 5, 1:50 pm)28.62 "Hg (Mar 12, 8:20 pm)
Average40 °F84%29.36 "Hg
* Reported Mar 4 5:20 am — Mar 19 5:20 am, Inverness. Weather by CustomWeather, © 2019

Note: Actual official high and low records may vary slightly from our data, if they occured in-between our weather recording intervals... More about our weather records

Advertising

Inverness Weather History for the Previous 24 Hours

Scroll right to see more
 ConditionsComfort  
Time TempWeatherWind HumidityBarometerVisibility
5:20 am
Tue, Mar 19
41 °FPassing clouds.8 mph93%30.04 "HgN/A
4:50 am43 °FPassing clouds.6 mph87%30.04 "HgN/A
4:20 am45 °FPassing clouds.9 mph87%30.04 "HgN/A
3:50 am43 °FPassing clouds.8 mph93%30.04 "HgN/A
3:20 am45 °FPassing clouds.7 mph87%30.07 "HgN/A
2:50 am45 °FClear.10 mph87%30.07 "HgN/A
2:20 am43 °FPassing clouds.7 mph87%30.07 "HgN/A
1:50 am43 °FQuite cool.8 mph87%30.07 "HgN/A
1:20 am43 °FPassing clouds.13 mph87%30.09 "HgN/A
12:50 am41 °FQuite cool.12 mph93%30.09 "HgN/A
12:20 am41 °FPassing clouds.10 mph93%30.07 "HgN/A
11:50 pm
Mon, Mar 18
41 °FQuite cool.9 mph93%30.09 "HgN/A
11:20 pm41 °FPassing clouds.7 mph93%30.09 "HgN/A
10:50 pm43 °FMostly cloudy.7 mph87%30.09 "HgN/A
10:20 pm43 °FPassing clouds.8 mph87%30.09 "HgN/A
9:50 pm43 °FPassing clouds.9 mph87%30.07 "HgN/A
9:20 pm43 °FPassing clouds.8 mph87%30.07 "HgN/A
8:50 pm39 °FPassing clouds.8 mph93%30.07 "HgN/A
8:20 pm39 °FPassing clouds.9 mph93%30.07 "HgN/A
7:50 pm41 °FPassing clouds.8 mph87%30.07 "HgN/A
7:20 pm43 °FScattered showers. Passing clouds.9 mph87%30.07 "HgN/A
6:50 pm43 °FScattered showers. Passing clouds.8 mph87%30.04 "HgN/A
6:20 pm46 °FSprinkles. Scattered clouds.9 mph76%30.04 "HgN/A
5:50 pm46 °FScattered showers. Passing clouds.12 mph76%30.04 "HgN/A
5:20 pm48 °FPassing clouds.10 mph71%30.01 "HgN/A
4:50 pm50 °FPassing clouds.9 mph67%30.01 "HgN/A
4:20 pm48 °FScattered clouds.9 mph71%30.01 "HgN/A
3:50 pm50 °FScattered clouds.9 mph67%30.01 "HgN/A
3:20 pm50 °FPartly sunny.9 mph67%30.01 "HgN/A
2:50 pm50 °FScattered clouds.9 mph67%29.98 "HgN/A
2:20 pm50 °FPassing clouds.9 mph62%29.98 "HgN/A
1:50 pm50 °FScattered clouds.10 mph62%29.98 "HgN/A
1:20 pm48 °FScattered clouds.9 mph66%29.98 "HgN/A
12:50 pm48 °FScattered clouds.9 mph71%29.98 "HgN/A
11:50 am46 °FPassing clouds.7 mph71%29.98 "HgN/A
11:20 am46 °FPassing clouds.6 mph71%29.98 "HgN/A
10:50 am46 °FPassing clouds.9 mph71%29.98 "HgN/A
10:20 am45 °FPassing clouds.7 mph76%29.98 "HgN/A
9:50 am43 °FPassing clouds.6 mph76%29.95 "HgN/A
9:20 am43 °FPassing clouds.7 mph76%29.95 "HgN/A
8:50 am41 °FPassing clouds.6 mph81%29.95 "HgN/A
8:20 am37 °FPassing clouds.6 mph87%29.95 "HgN/A
7:50 am32 °FPassing clouds.2 mph93%29.92 "HgN/A
7:20 am32 °FPassing clouds.1 mph93%29.92 "HgN/A
6:50 am30 °FPassing clouds.7 mph93%29.92 "HgN/A
6:20 am32 °FPassing clouds.7 mph93%29.92 "HgN/A
Weather by CustomWeather, © 2019

See weather overview